Location: Bogotá
(4.6533°N, 74.0837°W)
Time: 09:22:42
(UTC+00:00)

ISS - Pass Details

Date: 13 July 2024
Orbit: 409 x 423 km, 51.6° (Epoch: 24 July)

Event Time Altitude Azimuth Distance (km) Brightness Sun altitude
Exits shadow 09:50:41 - 309° (NW) 1,541 -1.2 -14.7°
Reaches altitude 10° 09:50:50 10° 309° (NW) 1,486 -1.2 -14.7°
Maximum altitude 09:54:02 45° 235° (SW) 581 -3.5 -14.0°
Drops below altitude 10° 09:57:16 10° 161° (SSE) 1,498 -1.0 -13.2°
Sets 09:59:26 0° 154° (SSE) 2,366 0.1 -12.7°
